Regional Weather Roundup
Issued by NWS

Home | Current Version | Previous Version | Graphics & Text | Print | Product List | Glossary On
Versions: 1 2 3 4 5 6 7 8 9 10 11 12 13 14 15 16 17 18 19 20 21 22 23 24 25 26 27 28 29 30 31 32 33 34 35 36 37 38 39 40 41 42 43 44 45 46 47 48 49 50
255
ASUS44 KLIX 291607
RWRLA
LOUISIANA WEATHER ROUNDUP
NATIONAL WEATHER SERVICE NEW ORLEANS LA
1100 AM CDT SUN MAR 29 2015

NOTE: "FAIR" INDICATES FEW OR NO CLOUDS BELOW 12,000 FEET WITH NO
      SIGNIFICANT WEATHER AND/OR OBSTRUCTIONS TO VISIBILITY.
      SKY/WX - SKY CONDITION AND SIGNIFICANT WEATHER.
      TMP - AIR TEMPERATURE.    DP   - DEWPOINT TEMPERATURE.
      RH  - RELATIVE HUMIDITY.  PRES - PRESSURE.
      HX  - HEAT INDEX.         WCI  - WIND CHILL INDEX.

*  THESE STATIONS ARE NOT NWS OR FAA STATIONS AND ARE NOT UNDER
   NWS QUALITY CONTROL.

LAZ040-048-061>063-065-066-069-291700-
SOUTHEAST LOUISIANA

CITY           SKY/WX    TMP DP  RH WIND       PRES   REMARKS
N.O. AUDUBON   NOT AVBL
N.O. INTL ARPT MOSUNNY   71  56  58 SE14G23   30.30S
N.O. LAKEFRONT SUNNY     72  54  53 SE13      30.31S
SLIDELL        MOSUNNY   68  54  60 SE10G22   30.31S
BATON ROUGE    SUNNY     68  55  63 E10       30.28F
BOOTHVILLE     SUNNY     70  60  70 SE10      30.32F
BELLE CHASSE   MOSUNNY   69  57  65 SE17      30.30F
BOGALUSA*        N/A     64  46  53 S8G16     30.33F
GALLIANO*      MOSUNNY   73  62  68 CALM      30.31S
NEW ROADS*     FAIR      65  53  66 E10       30.28S
GONZALES*      CLOUDY    70  58  65 SE7G16    30.29S
HAMMOND*       SUNNY     70  54  56 SE14G22   30.32S
HOUMA*         MOSUNNY   73  63  68 S9        30.30S
PORT FOURCHON* MOSUNNY   70  63  78 SE15      30.33S

$$

LAZ041-044-053-054-291700-
SOUTHWEST LOUISIANA

CITY           SKY/WX    TMP DP  RH WIND       PRES   REMARKS
LAKE CHARLES   MOSUNNY   74  61  63 S16G25    30.22S
LAFAYETTE      PTSUNNY   72  62  71 S6        30.25F
PATTERSON      SUNNY     72  63  73 S9        30.28S
SALT POINT       N/A     72  63  73 SE9       30.27R
NEW IBERIA     MOSUNNY   75  61  61 SW13G22   30.26F
CHENAULT AIRPK PTSUNNY   73  63  68 SW16G24     N/A

$$

LAZ027-028-291700-
CENTRAL LOUISIANA

CITY           SKY/WX    TMP DP  RH WIND       PRES   REMARKS
FORT POLK      PTSUNNY   69  62  76 S14       30.21S
ALEXANDRIA INT MOSUNNY   65  60  84 SE14      30.22S
ALEXANDRIA     CLOUDY    62  56  80 S10       30.24F

$$

LAZ001-002-291700-
NORTHWEST LOUISIANA

CITY           SKY/WX    TMP DP  RH WIND       PRES   REMARKS
SHREVEPORT     MOSUNNY   71  58  63 S14G22    30.15S
BARKSDALE AFB  MOSUNNY   67  57  69 S12G18    30.15F
DTN SHREVEPORT MOSUNNY   67  57  70 S12       30.15F

$$

LAZ014-016-291700-
NORTHEAST LOUISIANA

CITY           SKY/WX    TMP DP  RH WIND       PRES   REMARKS
MONROE         MOSUNNY   61  49  64 S9        30.23F
TALLULAH       MOSUNNY   60  44  55 S13       30.26F

$$




USA.gov is the U.S. government's official web portal to all federal, state and local government web resources and services.